Simultaneous Nadir Overpasses (SNOs) Predictions

Prediction of SNOs between METOP-A and TERRA Satellite Orbit:

Table of predicted SNOs for the next 14.0 days since TLE Epoch: 11/22/2016
Index Date (METOP-A) Time (METOP-A) Lat,Lon (METOP-A) SZA (METOP-A ) Date (TERRA) Time (TERRA) Lat,Lon (TERRA) SZA (TERRA ) Distance(km) Time Diff (sec)
1 11/23/2016 15:49:59 -81.30, 169.47 75.20 11/23/2016 15:51:01 -81.30, 169.44 75.18 0.60 62
2 11/23/2016 16:40:39 81.30, -23.00 104.83 11/23/2016 16:40:27 81.30, -22.82 104.85 3.05 12
3 11/26/2016 11:24:21 -81.30,-124.23 74.70 11/26/2016 11:25:17 -81.30,-124.15 74.67 1.47 56
4 11/26/2016 12:15:00 81.30, 43.65 105.38 11/26/2016 12:14:43 81.30, 43.58 105.36 1.16 17
5 11/29/2016 06:58:42 -81.30, -57.57 74.21 11/29/2016 06:59:33 -81.29, -57.75 74.21 3.09 51
6 11
